Location: Waco, TX
(31.5480°N, 97.1670°W)
Time: 08:18:30
(UTC-05:00)

ISS - Pass Details

Date: 14 October 2019
Orbit: 411 x 421 km, 51.6° (Epoch: 18 October)

Event Time Altitude Azimuth Distance (km) Brightness Sun altitude
Rises 18:54:07 0° 306° (NW) 2,340 0.8 0.0°
Reaches altitude 10° 18:56:19 10° 297° (WNW) 1,475 0.0 -0.5°
Maximum altitude 18:59:22 35° 230° (SW) 674 -1.9 -1.1°
Drops below altitude 10° 19:02:25 10° 162° (SSE) 1,466 -1.1 -1.8°
Sets 19:04:35 0° 153° (SSE) 2,324 -0.2 -2.2°
